Location: Daouli
(14.8671°N, 3.2030°W)
Time: 00:48:31
(UTC+00:00)

CZ-4 R/B - Pass Details

Date: 29 October 2020
Orbit: 532 x 598 km, 97.7° (Epoch: 02 December)

Event Time Altitude Azimuth Distance (km) Brightness Sun altitude
Rises 18:50:38 0° 159° (SSE) 2,737 4.8 -16.3°
Reaches altitude 10° 18:52:49 10° 154° (SSE) 1,832 3.8 -16.8°
Maximum altitude 18:56:40 52° 78° (ENE) 682 1.3 -17.7°
Drops below altitude 10° 19:00:27 10° 1° (N) 1,800 3.8 -18.6°
Sets 19:02:35 0° 356° (N) 2,685 4.8 -19.2°
